ANA107 KSFO-RJTT

Flight info

Callsign ANA107
Flight time N/A
Altitude 32000
Route GNNRR3 AMAKR DCT REDWD DCT UNVER DCT 42N130W 46N140W/N0483F340 50N150W 52N160W 53N170W 53N180E/N0487F360 DCT HEDMI M523 ISMAV/N0477F380 M523 IPGUD Y800 ESNIP Y810 AKRIT Y807 LALID Y804 INUBO Y108 MESSE
Aircraft B77W/H-SDE1E2E3FGHIJ2J3J5M1P2RWY/LB1D1

Departure

Time 2026-05-06 03:48
Airport San Francisco International Airport (KSFO)

Arrival

Time N/A
Airport Tokyo Haneda International Airport (RJTT)
Time Latitude Longitude Altitude Speed Heading
2026-05-06 03:14 37.61893 -122.39254 25 ft 0 kts 207°
2026-05-06 03:33 37.61894 -122.39253 25 ft 2 kts 207°
2026-05-06 03:33 37.61917 -122.39238 31 ft 4 kts 207°
2026-05-06 03:34 37.61936 -122.39226 31 ft 4 kts 210°
2026-05-06 03:34 37.61953 -122.39205 31 ft 4 kts 263°
2026-05-06 03:34 37.61948 -122.39178 31 ft 4 kts 297°
2026-05-06 03:34 37.61936 -122.39149 31 ft 2 kts 297°
2026-05-06 03:35 37.61935 -122.39147 31 ft 0 kts 297°
2026-05-06 03:38 37.61940 -122.39158 29 ft 3 kts 297°
2026-05-06 03:38 37.61959 -122.39203 31 ft 8 kts 297°
2026-05-06 03:38 37.62007 -122.39243 29 ft 10 kts
2026-05-06 03:39 37.62070 -122.39209 27 ft 10 kts 27°
2026-05-06 03:39 37.62136 -122.39166 31 ft 12 kts 27°
2026-05-06 03:39 37.62220 -122.39103 30 ft 15 kts 49°
2026-05-06 03:39 37.62261 -122.38969 28 ft 18 kts 73°
2026-05-06 03:40 37.62222 -122.38812 29 ft 21 kts 118°
2026-05-06 03:40 37.62152 -122.38646 31 ft 21 kts 118°
2026-05-06 03:40 37.62083 -122.38480 31 ft 21 kts 118°
2026-05-06 03:40 37.62013 -122.38313 30 ft 21 kts 118°
2026-05-06 03:41 37.61943 -122.38146 31 ft 21 kts 118°
2026-05-06 03:41 37.61873 -122.37980 31 ft 21 kts 118°
2026-05-06 03:41 37.61811 -122.37809 27 ft 21 kts 111°
2026-05-06 03:41 37.61757 -122.37633 31 ft 21 kts 111°
2026-05-06 03:42 37.61697 -122.37459 28 ft 21 kts 117°
2026-05-06 03:42 37.61628 -122.37294 28 ft 21 kts 118°
2026-05-06 03:42 37.61558 -122.37128 28 ft 21 kts 117°
2026-05-06 03:42 37.61487 -122.36962 29 ft 21 kts 122°
2026-05-06 03:43 37.61390 -122.36818 27 ft 21 kts 132°
2026-05-06 03:43 37.61328 -122.36691 29 ft 10 kts 118°
2026-05-06 03:43 37.61297 -122.36616 31 ft 10 kts 117°
2026-05-06 03:43 37.61265 -122.36541 27 ft 10 kts 118°
2026-05-06 03:44 37.61234 -122.36467 30 ft 10 kts 118°
2026-05-06 03:44 37.61203 -122.36392 31 ft 10 kts 118°
2026-05-06 03:44 37.61171 -122.36317 29 ft 10 kts 118°
2026-05-06 03:44 37.61140 -122.36242 27 ft 10 kts 118°
2026-05-06 03:45 37.61109 -122.36168 29 ft 10 kts 118°
2026-05-06 03:45 37.61077 -122.36093 29 ft 10 kts 118°
2026-05-06 03:45 37.61048 -122.36017 30 ft 10 kts 106°
2026-05-06 03:45 37.61064 -122.35938 28 ft 10 kts 53°
2026-05-06 03:46 37.61118 -122.35889 29 ft 10 kts 27°
2026-05-06 03:46 37.61176 -122.35865 29 ft 8 kts 344°
2026-05-06 03:46 37.61199 -122.35900 29 ft 0 kts 297°
2026-05-06 03:46 37.61199 -122.35901 29 ft 1 kts 297°
2026-05-06 03:47 37.61248 -122.36021 31 ft 35 kts 298°
2026-05-06 03:47 37.61477 -122.36567 27 ft 105 kts 298°
2026-05-06 03:47 37.61921 -122.37626 31 ft 165 kts 298°
2026-05-06 03:47 37.62522 -122.39045 222 ft 190 kts 297°
2026-05-06 03:48 37.63124 -122.40507 823 ft 190 kts 297°
2026-05-06 03:48 37.63753 -122.41970 1444 ft 191 kts 298°
2026-05-06 03:48 37.64437 -122.43510 1624 ft 211 kts 298°
2026-05-06 03:48 37.65192 -122.45203 1883 ft 230 kts 298°
2026-05-06 03:49 37.65996 -122.47010 2244 ft 242 kts 297°
2026-05-06 03:49 37.66837 -122.48898 2776 ft 250 kts 297°
2026-05-06 03:49 37.67714 -122.50837 3299 ft 258 kts 301°
2026-05-06 03:49 37.68758 -122.52705 3964 ft 262 kts 307°
2026-05-06 03:50 37.69880 -122.54524 4661 ft 263 kts 309°
2026-05-06 03:50 37.71014 -122.56327 5328 ft 265 kts 310°
2026-05-06 03:50 37.72167 -122.58158 5938 ft 268 kts 310°
2026-05-06 03:50 37.73339 -122.60019 6479 ft 274 kts 311°
2026-05-06 03:51 37.74528 -122.61913 7053 ft 276 kts 311°
2026-05-06 03:51 37.75721 -122.63817 7664 ft 277 kts 311°
2026-05-06 03:51 37.76925 -122.65741 8211 ft 281 kts 311°
2026-05-06 03:51 37.78145 -122.67696 8772 ft 285 kts 311°
2026-05-06 03:52 37.79377 -122.69672 9348 ft 288 kts 311°
2026-05-06 03:52 37.80620 -122.71668 9912 ft 291 kts 311°
2026-05-06 03:52 37.81867 -122.73672 10341 ft 299 kts 311°
2026-05-06 03:52 37.83214 -122.75834 10486 ft 319 kts 311°
2026-05-06 03:53 37.84610 -122.78076 10623 ft 338 kts 311°
2026-05-06 03:53 37.86109 -122.80487 10791 ft 358 kts 310°
2026-05-06 03:53 37.87700 -122.83054 11115 ft 372 kts 310°
2026-05-06 03:53 37.89297 -122.85636 11636 ft 381 kts 310°
2026-05-06 03:54 37.90935 -122.88288 12349 ft 385 kts 310°
2026-05-06 03:54 37.92588 -122.90968 13221 ft 385 kts 311°
2026-05-06 03:54 37.94243 -122.93654 14005 ft 389 kts 311°
2026-05-06 03:54 37.95918 -122.96370 14645 ft 394 kts 311°
2026-05-06 03:55 37.97619 -122.99130 15314 ft 399 kts 311°
2026-05-06 03:55 37.99335 -123.01916 16000 ft 403 kts 311°
2026-05-06 03:55 38.01087 -123.04762 16700 ft 406 kts 311°
2026-05-06 03:55 38.02813 -123.07569 17357 ft 411 kts 310°
2026-05-06 03:56 38.04575 -123.10438 18020 ft 414 kts 310°
2026-05-06 03:56 38.06356 -123.13339 18639 ft 418 kts 310°
2026-05-06 03:56 38.08175 -123.16306 19227 ft 422 kts 311°
2026-05-06 03:56 38.09979 -123.19251 19822 ft 425 kts 311°
2026-05-06 03:57 38.11776 -123.22187 20403 ft 428 kts 311°
2026-05-06 03:57 38.13605 -123.25178 20994 ft 430 kts 311°
2026-05-06 03:57 38.15447 -123.28192 21575 ft 433 kts 311°
2026-05-06 03:57 38.17298 -123.31223 22158 ft 436 kts 311°
2026-05-06 03:58 38.19164 -123.34283 22707 ft 439 kts 311°
2026-05-06 03:58 38.21040 -123.37361 23274 ft 442 kts 311°
2026-05-06 03:58 38.22929 -123.40464 23785 ft 445 kts 311°
2026-05-06 03:58 38.24829 -123.43588 24227 ft 448 kts 311°
2026-05-06 03:59 38.26746 -123.46742 24677 ft 451 kts 311°
2026-05-06 03:59 38.28665 -123.49904 25128 ft 454 kts 311°
2026-05-06 03:59 38.30601 -123.53097 25563 ft 456 kts 311°
2026-05-06 03:59 38.32543 -123.56302 26007 ft 459 kts 311°
2026-05-06 04:00 38.34495 -123.59529 26421 ft 461 kts 311°
2026-05-06 04:00 38.36459 -123.62778 26827 ft 464 kts 311°
2026-05-06 04:00 38.38434 -123.66047 27232 ft 467 kts 311°
2026-05-06 04:00 38.40418 -123.69336 27614 ft 470 kts 311°
2026-05-06 04:01 38.42418 -123.72653 28004 ft 472 kts 311°
2026-05-06 04:01 38.44421 -123.75980 28386 ft 474 kts 311°
2026-05-06 04:01 38.46434 -123.79326 28729 ft 477 kts 311°
2026-05-06 04:01 38.48458 -123.82695 29076 ft 479 kts 311°
2026-05-06 04:02 38.50488 -123.86077 29400 ft 481 kts 311°
2026-05-06 04:02 38.52528 -123.89479 29785 ft 482 kts 311°
2026-05-06 04:02 38.54558 -123.92871 30244 ft 480 kts 310°
2026-05-06 04:02 38.56580 -123.96251 30650 ft 478 kts 310°
2026-05-06 04:03 38.58600 -123.99632 31035 ft 477 kts 310°
2026-05-06 04:03 38.60610 -124.02999 31377 ft 477 kts 310°
2026-05-06 04:03 38.62623 -124.06372 31694 ft 477 kts 310°
2026-05-06 04:03 38.64631 -124.09742 32023 ft 477 kts 310°
2026-05-06 04:04 38.67995 -124.15391 32096 ft 481 kts 310°
2026-05-06 04:04 38.72022 -124.22174 32099 ft 475 kts 310°
2026-05-06 04:05 38.76006 -124.28897 32120 ft 473 kts 310°
2026-05-06 04:05 38.79985 -124.35624 32120 ft 474 kts 310°
2026-05-06 04:06 38.84609 -124.43456 32121 ft 474 kts 310°
2026-05-06 04:06 38.87943 -124.49117 32119 ft 475 kts 310°
2026-05-06 04:07 38.91923 -124.55890 32124 ft 475 kts 310°
2026-05-06 04:07 38.95905 -124.62678 32124 ft 476 kts 310°
2026-05-06 04:08 38.99886 -124.69480 32123 ft 476 kts 310°
2026-05-06 04:08 39.03863 -124.76289 32112 ft 476 kts 310°
2026-05-06 04:09 39.07835 -124.83106 32125 ft 476 kts 310°
2026-05-06 04:09 39.11803 -124.89927 32125 ft 476 kts 310°
2026-05-06 04:10 39.15767 -124.96759 32125 ft 476 kts 310°
2026-05-06 04:10 39.19728 -125.03598 32120 ft 476 kts 310°
2026-05-06 04:11 39.23685 -125.10445 32126 ft 476 kts 310°
2026-05-06 04:11 39.27611 -125.17254 32124 ft 476 kts 310°
2026-05-06 04:12 39.31559 -125.24115 32129 ft 476 kts 310°
2026-05-06 04:12 39.35503 -125.30984 32128 ft 476 kts 310°
2026-05-06 04:13 39.39444 -125.37862 32123 ft 476 kts 309°
2026-05-06 04:13 39.43380 -125.44748 32131 ft 476 kts 309°
2026-05-06 04:14 39.47314 -125.51644 32133 ft 476 kts 309°
2026-05-06 04:14 39.51245 -125.58549 32123 ft 476 kts 309°
2026-05-06 04:15 39.55167 -125.65454 32134 ft 476 kts 309°
2026-05-06 04:15 39.59086 -125.72369 32133 ft 476 kts 309°
2026-05-06 04:16 39.63007 -125.79302 32124 ft 476 kts 309°
2026-05-06 04:16 39.66918 -125.86233 32136 ft 476 kts 309°
2026-05-06 04:17 39.70827 -125.93176 32136 ft 476 kts 309°
2026-05-06 04:17 39.74730 -126.00122 32129 ft 476 kts 309°
2026-05-06 04:18 39.78633 -126.07085 32141 ft 476 kts 309°
2026-05-06 04:18 39.82531 -126.14053 32142 ft 476 kts 309°
2026-05-06 04:19 39.86422 -126.21024 32133 ft 476 kts 308°
2026-05-06 04:19 39.90315 -126.28015 32140 ft 476 kts 308°
2026-05-06 04:20 39.94198 -126.35003 32145 ft 476 kts 308°
2026-05-06 04:20 39.98077 -126.42000 32135 ft 476 kts 308°
2026-05-06 04:21 40.01955 -126.49010 32138 ft 476 kts 308°
2026-05-06 04:21 40.05823 -126.56018 32145 ft 476 kts 308°
2026-05-06 04:22 40.09691 -126.63041 32139 ft 476 kts 308°
2026-05-06 04:23 40.15484 -126.73589 32146 ft 476 kts 308°
2026-05-06 04:23 40.19338 -126.80628 32146 ft 476 kts 308°
2026-05-06 04:24 40.23167 -126.87635 32141 ft 477 kts 307°
2026-05-06 04:24 40.27022 -126.94707 32144 ft 477 kts 307°
2026-05-06 04:25 40.30882 -127.01776 32165 ft 477 kts 308°
2026-05-06 04:25 40.34930 -127.08666 32154 ft 477 kts 310°
2026-05-06 04:26 40.39046 -127.15483 32145 ft 477 kts 310°
2026-05-06 04:26 40.43139 -127.22328 32145 ft 477 kts 310°
2026-05-06 04:27 40.47210 -127.29210 32153 ft 477 kts 309°
2026-05-06 04:27 40.51272 -127.36112 32156 ft 477 kts 309°
2026-05-06 04:28 40.55325 -127.43016 32156 ft 477 kts 309°
2026-05-06 04:28 40.59380 -127.49935 32150 ft 477 kts 309°
2026-05-06 04:29 40.63429 -127.56858 32165 ft 478 kts 309°
2026-05-06 04:29 40.67477 -127.63794 32162 ft 478 kts 309°
2026-05-06 04:30 40.71524 -127.70744 32170 ft 478 kts 309°
2026-05-06 04:30 40.75566 -127.77703 32163 ft 478 kts 309°
2026-05-06 04:31 40.79603 -127.84667 32152 ft 478 kts 309°
2026-05-06 04:31 40.83633 -127.91637 32171 ft 477 kts 308°
2026-05-06 04:32 40.87630 -127.98563 32167 ft 477 kts 308°
2026-05-06 04:32 40.91645 -128.05536 32162 ft 477 kts 308°
2026-05-06 04:33 40.95657 -128.12521 32174 ft 476 kts 308°
2026-05-06 04:33 40.99659 -128.19504 32152 ft 477 kts 308°
2026-05-06 04:34 41.03661 -128.26504 32172 ft 477 kts 308°
2026-05-06 04:34 41.07662 -128.33514 32171 ft 477 kts 307°
2026-05-06 04:35 41.11655 -128.40526 32170 ft 477 kts 307°
2026-05-06 04:35 41.15650 -128.47564 32181 ft 477 kts 307°
2026-05-06 04:36 41.19637 -128.54600 32175 ft 477 kts 307°
2026-05-06 04:36 41.23622 -128.61648 32181 ft 477 kts 307°
2026-05-06 04:37 41.27598 -128.68698 32189 ft 477 kts 307°
2026-05-06 04:37 41.31575 -128.75764 32178 ft 477 kts 307°
2026-05-06 04:38 41.35546 -128.82837 32187 ft 477 kts 306°
2026-05-06 04:38 41.39512 -128.89916 32186 ft 476 kts 306°
2026-05-06 04:39 41.43467 -128.96994 32183 ft 477 kts 306°
2026-05-06 04:39 41.47418 -129.04079 32194 ft 476 kts 306°
2026-05-06 04:40 41.51335 -129.11122 32187 ft 476 kts 306°
2026-05-06 04:40 41.55274 -129.18218 32191 ft 475 kts 306°
2026-05-06 04:41 41.59205 -129.25321 32199 ft 475 kts 305°
2026-05-06 04:41 41.63131 -129.32429 32187 ft 475 kts 306°
2026-05-06 04:42 41.67053 -129.39543 32196 ft 475 kts 305°
2026-05-06 04:42 41.70975 -129.46677 32173 ft 476 kts 305°
2026-05-06 04:43 41.74886 -129.53807 32190 ft 475 kts 305°
2026-05-06 04:43 41.78793 -129.60942 32206 ft 475 kts 305°
2026-05-06 04:44 41.82692 -129.68083 32208 ft 475 kts 304°
2026-05-06 04:44 41.86591 -129.75245 32206 ft 475 kts 305°
2026-05-06 04:45 41.90489 -129.82421 32210 ft 476 kts 304°
2026-05-06 04:45 41.94390 -129.89616 32200 ft 477 kts 304°
2026-05-06 04:46 41.98286 -129.96820 32207 ft 477 kts 304°
2026-05-06 04:46 42.02040 -130.04158 32216 ft 476 kts 301°
2026-05-06 04:47 42.05576 -130.11676 32215 ft 476 kts 300°
2026-05-06 04:47 42.09096 -130.19234 32219 ft 476 kts 300°
2026-05-06 04:48 42.12622 -130.26782 32220 ft 476 kts 300°
2026-05-06 04:48 42.16156 -130.34332 32222 ft 476 kts 300°
2026-05-06 04:49 42.19690 -130.41890 32228 ft 476 kts 300°
2026-05-06 04:49 42.23215 -130.49451 32220 ft 476 kts 300°
2026-05-06 04:50 42.26141 -130.55743 32229 ft 476 kts 300°
2026-05-06 04:50 42.29652 -130.63311 32233 ft 476 kts 300°
2026-05-06 04:51 42.33158 -130.70886 32230 ft 475 kts 300°
2026-05-06 04:51 42.36661 -130.78474 32230 ft 475 kts 300°
2026-05-06 04:52 42.40154 -130.86060 32237 ft 475 kts 299°
2026-05-06 04:52 42.43643 -130.93657 32240 ft 475 kts 300°
2026-05-06 04:53 42.47125 -131.01257 32241 ft 475 kts 300°
2026-05-06 04:53 42.50604 -131.08872 32243 ft 475 kts 299°
2026-05-06 04:54 42.54073 -131.16483 32241 ft 475 kts 299°
2026-05-06 04:54 42.57535 -131.24098 32250 ft 474 kts 299°
2026-05-06 04:55 42.60990 -131.31719 32251 ft 474 kts 299°
2026-05-06 04:55 42.64440 -131.39347 32251 ft 473 kts 299°
2026-05-06 04:56 42.67876 -131.46966 32265 ft 473 kts 299°
2026-05-06 04:56 42.71304 -131.54582 32253 ft 472 kts 299°
2026-05-06 04:57 42.74718 -131.62191 32247 ft 471 kts 299°
2026-05-06 04:57 42.78125 -131.69803 32270 ft 471 kts 299°
2026-05-06 04:58 42.81525 -131.77417 32264 ft 470 kts 299°
2026-05-06 04:58 42.84916 -131.85032 32274 ft 471 kts 299°
2026-05-06 04:59 42.88306 -131.92668 32269 ft 471 kts 299°
2026-05-06 04:59 42.91695 -132.00316 32273 ft 471 kts 299°
2026-05-06 05:00 42.95078 -132.07971 32273 ft 471 kts 299°
2026-05-06 05:00 42.98429 -132.15579 32280 ft 470 kts 299°
2026-05-06 05:01 43.01790 -132.23223 32291 ft 469 kts 299°
2026-05-06 05:01 43.05144 -132.30869 32277 ft 469 kts 299°
2026-05-06 05:02 43.08487 -132.38513 32278 ft 468 kts 299°
2026-05-06 05:02 43.11824 -132.46166 32295 ft 468 kts 299°
2026-05-06 05:03 43.15157 -132.53829 32294 ft 469 kts 298°
2026-05-06 05:03 43.18491 -132.61513 32291 ft 469 kts 298°
2026-05-06 05:04 43.21818 -132.69202 32293 ft 470 kts 298°
2026-05-06 05:04 43.25147 -132.76917 32295 ft 470 kts 298°
2026-05-06 05:05 43.28468 -132.84632 32299 ft 470 kts 298°
2026-05-06 05:05 43.31787 -132.92363 32295 ft 470 kts 298°
2026-05-06 05:06 43.35096 -133.00092 32303 ft 469 kts 298°
2026-05-06 05:06 43.38402 -133.07835 32314 ft 469 kts 298°
2026-05-06 05:07 43.41694 -133.15564 32308 ft 468 kts 298°
2026-05-06 05:07 43.44979 -133.23299 32308 ft 468 kts 298°
2026-05-06 05:08 43.48254 -133.31030 32312 ft 467 kts 297°
2026-05-06 05:08 43.51514 -133.38747 32323 ft 466 kts 298°
2026-05-06 05:09 43.54770 -133.46475 32317 ft 466 kts 298°
2026-05-06 05:09 43.58013 -133.54193 32320 ft 465 kts 298°
2026-05-06 05:10 43.61252 -133.61921 32330 ft 465 kts 298°
2026-05-06 05:10 43.64457 -133.69592 32324 ft 464 kts 298°
2026-05-06 05:11 43.67676 -133.77311 32328 ft 464 kts 298°
2026-05-06 05:11 43.70889 -133.85039 32331 ft 463 kts 298°
2026-05-06 05:12 43.74091 -133.92765 32342 ft 463 kts 299°
2026-05-06 05:12 43.77283 -134.00482 32331 ft 462 kts 299°
2026-05-06 05:13 43.80466 -134.08201 32332 ft 461 kts 298°
2026-05-06 05:13 43.83635 -134.15906 32334 ft 460 kts 298°
2026-05-06 05:14 43.86798 -134.23616 32344 ft 460 kts 298°
2026-05-06 05:14 43.89950 -134.31324 32343 ft 459 kts 298°
2026-05-06 05:15 43.93091 -134.39023 32345 ft 458 kts 298°
2026-05-06 05:15 43.96223 -134.46721 32347 ft 458 kts 298°
2026-05-06 05:16 43.99351 -134.54431 32353 ft 458 kts 298°
2026-05-06 05:16 44.02476 -134.62153 32350 ft 458 kts 298°
2026-05-06 05:17 44.05593 -134.69879 32348 ft 459 kts 298°
2026-05-06 05:17 44.08713 -134.77630 32362 ft 459 kts 297°
2026-05-06 05:18 44.11822 -134.85376 32350 ft 459 kts 297°
2026-05-06 05:18 44.14927 -134.93135 32352 ft 458 kts 297°
2026-05-06 05:19 44.18020 -135.00883 32354 ft 458 kts 297°
2026-05-06 05:19 44.21108 -135.08639 32364 ft 457 kts 296°
2026-05-06 05:20 44.24166 -135.16341 32359 ft 457 kts 296°
2026-05-06 05:20 44.27250 -135.24134 32364 ft 456 kts 296°
2026-05-06 05:21 44.30290 -135.31833 32364 ft 456 kts 296°
2026-05-06 05:21 44.33344 -135.39588 32375 ft 455 kts 296°
2026-05-06 05:22 44.36386 -135.47335 32366 ft 455 kts 296°
2026-05-06 05:22 44.39421 -135.55088 32368 ft 454 kts 296°
2026-05-06 05:23 44.42445 -135.62832 32371 ft 454 kts 296°
2026-05-06 05:23 44.46971 -135.74465 32368 ft 454 kts 295°
2026-05-06 05:24 44.49982 -135.82229 32373 ft 453 kts 295°
2026-05-06 05:24 44.52986 -135.89999 32382 ft 453 kts 295°
2026-05-06 05:25 44.55983 -135.97770 32378 ft 453 kts 295°
2026-05-06 05:25 44.58974 -136.05548 32376 ft 453 kts 295°
2026-05-06 05:26 44.61963 -136.13344 32377 ft 453 kts 295°
2026-05-06 05:26 44.64945 -136.21141 32378 ft 453 kts 295°
2026-05-06 05:27 44.67921 -136.28945 32385 ft 454 kts 295°
2026-05-06 05:27 44.70878 -136.36722 32383 ft 454 kts 295°
2026-05-06 05:28 44.73850 -136.44561 32381 ft 454 kts 295°
2026-05-06 05:28 44.76813 -136.52397 32380 ft 454 kts 295°
2026-05-06 05:29 44.79774 -136.60248 32395 ft 454 kts 294°
2026-05-06 05:29 44.82726 -136.68101 32384 ft 454 kts 294°
2026-05-06 05:30 44.85668 -136.75950 32387 ft 453 kts 294°
2026-05-06 05:30 44.88606 -136.83809 32386 ft 453 kts 294°
2026-05-06 05:31 44.91534 -136.91662 32393 ft 452 kts 294°
2026-05-06 05:31 44.94452 -136.99512 32386 ft 451 kts 294°
2026-05-06 05:32 44.97360 -137.07358 32391 ft 450 kts 294°
2026-05-06 05:32 45.00256 -137.15196 32410 ft 450 kts 294°
2026-05-06 05:33 45.03147 -137.23041 32392 ft 450 kts 293°
2026-05-06 05:33 45.06035 -137.30900 32390 ft 450 kts 293°
2026-05-06 05:34 45.08915 -137.38760 32392 ft 450 kts 293°
2026-05-06 05:34 45.11795 -137.46645 32394 ft 451 kts 293°
2026-05-06 05:35 45.14673 -137.54545 32396 ft 451 kts 293°
2026-05-06 05:35 45.17545 -137.62450 32396 ft 452 kts 293°
2026-05-06 05:36 45.19932 -137.69039 32397 ft 452 kts 293°
2026-05-06 05:36 45.22795 -137.76964 32408 ft 452 kts 292°
2026-05-06 05:37 45.25655 -137.84900 32402 ft 452 kts 292°
2026-05-06 05:37 45.28989 -137.94186 32398 ft 451 kts 292°
2026-05-06 05:38 45.31351 -138.00782 32394 ft 450 kts 292°
2026-05-06 05:38 45.34183 -138.08714 32400 ft 450 kts 292°
2026-05-06 05:39 45.37007 -138.16643 32404 ft 450 kts 292°
2026-05-06 05:39 45.39822 -138.24575 32398 ft 449 kts 292°
2026-05-06 05:40 45.42631 -138.32511 32401 ft 449 kts 292°
2026-05-06 05:40 45.45432 -138.40450 32402 ft 448 kts 292°
2026-05-06 05:41 45.48225 -138.48387 32413 ft 448 kts 291°
2026-05-06 05:41 45.51012 -138.56331 32404 ft 448 kts 291°
2026-05-06 05:42 45.53776 -138.64232 32392 ft 448 kts 291°
2026-05-06 05:42 45.56548 -138.72182 32399 ft 448 kts 291°
2026-05-06 05:43 45.59335 -138.80195 32392 ft 448 kts 291°
2026-05-06 05:43 45.62099 -138.88169 32393 ft 448 kts 291°
2026-05-06 05:44 45.64858 -138.96153 32416 ft 448 kts 291°
2026-05-06 05:44 45.67613 -139.04148 32397 ft 448 kts 291°
2026-05-06 05:45 45.70348 -139.12109 32407 ft 449 kts 291°
2026-05-06 05:45 45.73092 -139.20119 32401 ft 448 kts 291°
2026-05-06 05:46 45.75828 -139.28131 32401 ft 448 kts 291°
2026-05-06 05:46 45.78559 -139.36152 32401 ft 447 kts 291°
2026-05-06 05:47 45.81279 -139.44166 32407 ft 447 kts 290°
2026-05-06 05:47 45.83992 -139.52183 32405 ft 447 kts 290°
2026-05-06 05:48 45.86698 -139.60204 32393 ft 446 kts 290°
2026-05-06 05:48 45.89391 -139.68212 32395 ft 446 kts 290°
2026-05-06 05:49 45.92081 -139.76235 32411 ft 446 kts 290°
2026-05-06 05:49 45.94764 -139.84263 32395 ft 446 kts 290°
2026-05-06 05:50 45.97447 -139.92310 32402 ft 446 kts 290°
2026-05-06 05:50 46.00203 -140.00314 32393 ft 449 kts 294°
2026-05-06 05:51 46.03708 -140.07894 32802 ft 456 kts 298°
2026-05-06 05:51 46.05509 -140.11623 33242 ft 452 kts 298°
2026-05-06 05:51 46.07291 -140.15328 33718 ft 448 kts 298°
2026-05-06 05:52 46.09054 -140.19012 34182 ft 445 kts 298°
2026-05-06 05:52 46.10802 -140.22681 34420 ft 446 kts 298°
2026-05-06 05:52 46.14317 -140.30113 34392 ft 448 kts 298°
2026-05-06 05:53 46.17798 -140.37480 34400 ft 442 kts 297°
2026-05-06 05:53 46.21245 -140.44801 34395 ft 440 kts 297°
2026-05-06 05:54 46.24649 -140.52052 34398 ft 439 kts 297°
2026-05-06 05:54 46.28075 -140.59371 34401 ft 440 kts 297°
2026-05-06 05:55 46.31503 -140.66712 34405 ft 442 kts 297°
2026-05-06 05:55 46.34945 -140.74097 34405 ft 443 kts 297°
2026-05-06 05:56 46.38392 -140.81515 34403 ft 444 kts 297°
2026-05-06 05:56 46.41839 -140.88949 34402 ft 445 kts 297°
2026-05-06 05:57 46.45289 -140.96410 34407 ft 445 kts 297°
2026-05-06 05:57 46.48727 -141.03866 34398 ft 445 kts 297°
2026-05-06 05:58 46.52156 -141.11322 34400 ft 444 kts 297°
2026-05-06 05:58 46.55574 -141.18773 34396 ft 443 kts 297°
2026-05-06 05:59 46.58982 -141.26224 34405 ft 442 kts 296°
2026-05-06 05:59 46.62379 -141.33672 34410 ft 442 kts 296°
2026-05-06 06:00 46.65772 -141.41129 34407 ft 442 kts 296°
2026-05-06 06:00 46.69161 -141.48600 34403 ft 442 kts 296°
2026-05-06 06:01 46.72549 -141.56089 34401 ft 443 kts 296°
2026-05-06 06:01 46.75909 -141.63535 34390 ft 443 kts 296°
2026-05-06 06:02 46.79314 -141.71100 34391 ft 443 kts 296°
2026-05-06 06:02 46.82696 -141.78635 34391 ft 443 kts 296°
2026-05-06 06:03 46.86048 -141.86122 34404 ft 444 kts 296°
2026-05-06 06:03 46.89425 -141.93689 34394 ft 444 kts 296°
2026-05-06 06:04 46.92798 -142.01264 34384 ft 444 kts 296°
2026-05-06 06:04 46.96166 -142.08850 34390 ft 444 kts 296°
2026-05-06 06:05 46.99528 -142.16443 34389 ft 445 kts 295°
2026-05-06 06:05 47.02892 -142.24062 34388 ft 445 kts 295°
2026-05-06 06:06 47.06248 -142.31684 34388 ft 445 kts 295°
2026-05-06 06:06 47.09598 -142.39312 34386 ft 445 kts 295°
2026-05-06 06:07 47.12947 -142.46961 34390 ft 445 kts 295°
2026-05-06 06:07 47.16291 -142.54619 34387 ft 445 kts 295°
2026-05-06 06:08 47.19631 -142.62289 34388 ft 445 kts 295°
2026-05-06 06:08 47.22965 -142.69968 34389 ft 445 kts 295°
2026-05-06 06:09 47.26293 -142.77653 34388 ft 446 kts 295°
2026-05-06 06:09 47.29600 -142.85310 34388 ft 446 kts 295°
2026-05-06 06:10 47.32923 -142.93028 34385 ft 446 kts 295°
2026-05-06 06:10 47.36238 -143.00748 34383 ft 446 kts 294°
2026-05-06 06:11 47.39551 -143.08484 34389 ft 446 kts 294°
2026-05-06 06:11 47.42857 -143.16228 34379 ft 446 kts 294°
2026-05-06 06:12 47.46165 -143.23999 34380 ft 446 kts 294°
2026-05-06 06:12 47.49466 -143.31774 34381 ft 447 kts 294°
2026-05-06 06:13 47.52761 -143.39557 34376 ft 447 kts 294°
2026-05-06 06:13 47.56059 -143.47368 34380 ft 447 kts 294°
2026-05-06 06:14 47.59351 -143.55189 34370 ft 447 kts 294°
2026-05-06 06:14 47.62636 -143.63016 34371 ft 447 kts 294°
2026-05-06 06:15 47.65921 -143.70865 34375 ft 447 kts 294°
2026-05-06 06:15 47.69196 -143.78713 34373 ft 447 kts 294°
2026-05-06 06:16 47.72466 -143.86571 34375 ft 447 kts 294°
2026-05-06 06:16 47.75733 -143.94446 34375 ft 447 kts 294°
2026-05-06 06:17 47.78991 -144.02322 34394 ft 448 kts 294°
2026-05-06 06:17 47.82250 -144.10224 34373 ft 448 kts 293°
2026-05-06 06:18 47.85509 -144.18148 34369 ft 449 kts 293°
2026-05-06 06:18 47.88738 -144.26021 34371 ft 448 kts 293°
2026-05-06 06:19 47.91981 -144.33953 34397 ft 449 kts 293°
2026-05-06 06:19 47.95226 -144.41913 34376 ft 449 kts 293°
2026-05-06 06:20 47.98468 -144.49889 34366 ft 450 kts 293°
2026-05-06 06:20 48.01704 -144.57874 34368 ft 450 kts 293°
2026-05-06 06:21 48.04938 -144.65874 34399 ft 450 kts 293°
2026-05-06 06:21 48.08167 -144.73889 34373 ft 450 kts 293°
2026-05-06 06:22 48.11385 -144.81901 34360 ft 449 kts 293°
2026-05-06 06:22 48.14594 -144.89913 34360 ft 448 kts 292°
2026-05-06 06:23 48.17789 -144.97914 34362 ft 447 kts 292°
2026-05-06 06:23 48.20980 -145.05932 34369 ft 448 kts 292°
2026-05-06 06:24 48.24167 -145.13962 34362 ft 448 kts 292°
2026-05-06 06:24 48.27346 -145.21995 34362 ft 448 kts 292°
2026-05-06 06:25 48.30520 -145.30040 34362 ft 448 kts 292°
2026-05-06 06:26 48.34743 -145.40784 34363 ft 449 kts 292°
2026-05-06 06:26 48.38446 -145.50237 34355 ft 449 kts 292°
2026-05-06 06:27 48.41073 -145.56965 34356 ft 449 kts 292°
2026-05-06 06:27 48.44232 -145.65077 34355 ft 449 kts 292°
2026-05-06 06:28 48.47388 -145.73208 34357 ft 450 kts 292°
2026-05-06 06:28 48.50542 -145.81359 34352 ft 450 kts 292°
2026-05-06 06:29 48.53693 -145.89526 34350 ft 450 kts 292°
2026-05-06 06:29 48.56839 -145.97703 34351 ft 451 kts 292°
2026-05-06 06:30 48.59982 -146.05901 34351 ft 451 kts 291°
2026-05-06 06:30 48.63120 -146.14109 34348 ft 451 kts 291°
2026-05-06 06:31 48.66256 -146.22340 34353 ft 451 kts 291°
2026-05-06 06:31 48.69386 -146.30577 34352 ft 451 kts 291°
2026-05-06 06:32 48.72506 -146.38817 34345 ft 452 kts 291°
2026-05-06 06:32 48.75623 -146.47073 34337 ft 451 kts 291°
2026-05-06 06:33 48.78732 -146.55333 34346 ft 451 kts 291°
2026-05-06 06:33 48.81832 -146.63595 34339 ft 450 kts 291°
2026-05-06 06:34 48.84922 -146.71858 34364 ft 450 kts 291°
2026-05-06 06:34 48.87991 -146.80091 34344 ft 451 kts 291°
2026-05-06 06:35 48.91073 -146.88386 34331 ft 451 kts 291°
2026-05-06 06:35 48.94150 -146.96690 34335 ft 451 kts 291°
2026-05-06 06:36 48.97221 -147.05008 34334 ft 451 kts 291°
2026-05-06 06:36 49.00286 -147.13334 34329 ft 451 kts 291°
2026-05-06 06:37 49.03349 -147.21680 34328 ft 451 kts 291°
2026-05-06 06:37 49.06404 -147.30031 34333 ft 451 kts 291°
2026-05-06 06:38 49.09451 -147.38389 34334 ft 451 kts 291°
2026-05-06 06:38 49.12499 -147.46778 34336 ft 452 kts 291°
2026-05-06 06:39 49.15539 -147.55169 34323 ft 452 kts 291°
2026-05-06 06:39 49.18576 -147.63579 34323 ft 451 kts 290°
2026-05-06 06:40 49.21603 -147.71988 34323 ft 451 kts 290°
2026-05-06 06:40 49.24623 -147.80407 34332 ft 452 kts 290°
2026-05-06 06:41 49.27641 -147.88849 34323 ft 452 kts 290°
2026-05-06 06:41 49.30655 -147.97305 34321 ft 453 kts 290°
2026-05-06 06:42 49.33666 -148.05779 34317 ft 453 kts 290°
2026-05-06 06:42 49.36671 -148.14265 34333 ft 453 kts 290°
2026-05-06 06:43 49.39677 -148.22783 34318 ft 454 kts 290°
2026-05-06 06:43 49.42660 -148.31263 34312 ft 454 kts 290°
2026-05-06 06:44 49.45658 -148.39815 34304 ft 455 kts 290°
2026-05-06 06:44 49.48652 -148.48380 34308 ft 455 kts 290°
2026-05-06 06:45 49.51643 -148.56970 34311 ft 456 kts 290°
2026-05-06 06:45 49.54629 -148.65573 34304 ft 456 kts 290°
2026-05-06 06:46 49.57611 -148.74192 34299 ft 456 kts 290°
2026-05-06 06:46 49.60583 -148.82812 34299 ft 456 kts 290°
2026-05-06 06:47 49.63553 -148.91455 34300 ft 457 kts 290°
2026-05-06 06:47 49.66523 -149.00129 34300 ft 457 kts 290°
2026-05-06 06:48 49.69488 -149.08816 34293 ft 457 kts 290°
2026-05-06 06:48 49.72447 -149.17516 34294 ft 457 kts 290°
2026-05-06 06:49 49.75401 -149.26230 34301 ft 458 kts 290°
2026-05-06 06:49 49.78351 -149.34963 34290 ft 459 kts 290°
2026-05-06 06:50 49.81300 -149.43725 34282 ft 459 kts 290°
2026-05-06 06:50 49.84240 -149.52488 34285 ft 459 kts 290°
2026-05-06 06:51 49.87175 -149.61268 34310 ft 459 kts 290°
2026-05-06 06:51 49.90105 -149.70064 34287 ft 459 kts 290°
2026-05-06 06:52 49.93031 -149.78878 34277 ft 460 kts 290°
2026-05-06 06:52 49.95950 -149.87702 34271 ft 460 kts 290°
2026-05-06 06:53 49.98866 -149.96544 34276 ft 460 kts 290°
2026-05-06 06:53 50.01469 -150.05564 34273 ft 455 kts 285°
2026-05-06 06:54 50.03750 -150.14728 34269 ft 455 kts 284°
2026-05-06 06:54 50.06028 -150.23916 34266 ft 455 kts 285°
2026-05-06 06:55 50.08310 -150.33095 34264 ft 455 kts 285°
2026-05-06 06:55 50.10579 -150.42227 34275 ft 456 kts 285°
2026-05-06 06:56 50.12863 -150.51448 34272 ft 456 kts 285°
2026-05-06 06:56 50.15140 -150.60674 34260 ft 456 kts 285°
2026-05-06 06:57 50.17407 -150.69902 34263 ft 456 kts 285°
2026-05-06 06:57 50.19666 -150.79136 34258 ft 456 kts 284°
2026-05-06 06:58 50.21917 -150.88381 34249 ft 455 kts 284°
2026-05-06 06:58 50.24160 -150.97628 34253 ft 455 kts 284°
2026-05-06 06:59 50.26392 -151.06870 34253 ft 455 kts 284°
2026-05-06 06:59 50.28620 -151.16134 34252 ft 455 kts 284°
2026-05-06 07:00 50.30840 -151.25406 34260 ft 455 kts 284°
2026-05-06 07:00 50.33052 -151.34688 34259 ft 455 kts 284°
2026-05-06 07:01 50.35259 -151.43976 34251 ft 455 kts 284°
2026-05-06 07:01 50.37457 -151.53268 34250 ft 455 kts 284°
2026-05-06 07:02 50.39647 -151.62575 34265 ft 455 kts 284°
2026-05-06 07:02 50.41831 -151.71891 34248 ft 455 kts 284°
2026-05-06 07:03 50.43990 -151.81144 34249 ft 455 kts 284°
2026-05-06 07:03 50.46172 -151.90533 34235 ft 455 kts 284°
2026-05-06 07:04 50.48319 -151.99816 34233 ft 455 kts 284°
2026-05-06 07:04 50.50472 -152.09154 34231 ft 455 kts 284°
2026-05-06 07:05 50.52617 -152.18507 34235 ft 455 kts 284°
2026-05-06 07:05 50.54750 -152.27855 34238 ft 454 kts 284°
2026-05-06 07:06 50.56875 -152.37203 34242 ft 454 kts 284°
2026-05-06 07:06 50.58995 -152.46567 34260 ft 454 kts 284°
2026-05-06 07:07 50.61107 -152.55932 34235 ft 454 kts 284°
2026-05-06 07:07 50.63208 -152.65305 34230 ft 454 kts 284°
2026-05-06 07:08 50.65299 -152.74671 34223 ft 453 kts 284°
2026-05-06 07:08 50.67383 -152.84044 34226 ft 453 kts 284°
2026-05-06 07:09 50.69457 -152.93416 34234 ft 453 kts 284°
2026-05-06 07:09 50.71522 -153.02787 34225 ft 452 kts 284°
2026-05-06 07:10 50.73580 -153.12169 34223 ft 452 kts 284°
2026-05-06 07:10 50.75626 -153.21541 34224 ft 452 kts 284°
2026-05-06 07:11 50.77666 -153.30927 34247 ft 451 kts 284°
2026-05-06 07:11 50.79357 -153.38730 34228 ft 452 kts 284°
2026-05-06 07:12 50.81381 -153.48133 34220 ft 452 kts 284°
2026-05-06 07:12 50.83398 -153.57538 34218 ft 452 kts 284°
2026-05-06 07:13 50.85412 -153.66966 34220 ft 452 kts 284°
2026-05-06 07:13 50.87417 -153.76394 34234 ft 452 kts 284°
2026-05-06 07:14 50.89417 -153.85847 34221 ft 453 kts 284°
2026-05-06 07:14 50.91408 -153.95310 34214 ft 453 kts 284°
2026-05-06 07:15 50.93396 -154.04793 34215 ft 453 kts 284°
2026-05-06 07:15 50.95375 -154.14278 34215 ft 453 kts 284°
2026-05-06 07:16 50.97346 -154.23770 34220 ft 454 kts 284°
2026-05-06 07:16 50.99312 -154.33286 34210 ft 454 kts 284°
2026-05-06 07:17 51.01271 -154.42816 34213 ft 454 kts 284°
2026-05-06 07:17 51.03207 -154.52274 34211 ft 453 kts 284°
2026-05-06 07:18 51.05147 -154.61797 34231 ft 453 kts 284°
2026-05-06 07:18 51.07083 -154.71348 34219 ft 454 kts 284°
2026-05-06 07:19 51.09012 -154.80911 34211 ft 454 kts 284°
2026-05-06 07:19 51.10933 -154.90484 34209 ft 455 kts 284°
2026-05-06 07:20 51.12849 -155.00076 34209 ft 455 kts 283°
2026-05-06 07:20 51.14757 -155.09675 34210 ft 455 kts 283°
2026-05-06 07:21 51.16655 -155.19272 34207 ft 455 kts 283°
2026-05-06 07:21 51.18548 -155.28888 34207 ft 454 kts 283°
2026-05-06 07:22 51.20443 -155.38565 34207 ft 454 kts 283°
2026-05-06 07:22 51.22306 -155.48127 34225 ft 454 kts 283°
2026-05-06 07:23 51.24174 -155.57767 34213 ft 455 kts 283°
2026-05-06 07:23 51.26138 -155.67952 34211 ft 456 kts 283°
2026-05-06 07:24 51.27994 -155.77626 34214 ft 456 kts 283°
2026-05-06 07:24 51.29845 -155.87321 34215 ft 456 kts 283°
2026-05-06 07:25 51.31688 -155.97027 34218 ft 456 kts 283°
2026-05-06 07:25 51.33524 -156.06746 34213 ft 457 kts 283°
2026-05-06 07:26 51.35354 -156.16485 34206 ft 457 kts 283°
2026-05-06 07:26 51.37177 -156.26234 34209 ft 457 kts 283°
2026-05-06 07:27 51.38994 -156.36003 34208 ft 457 kts 283°
2026-05-06 07:27 51.40801 -156.45770 34214 ft 458 kts 284°
2026-05-06 07:28 51.42600 -156.55549 34208 ft 458 kts 283°
2026-05-06 07:28 51.45275 -156.70181 34209 ft 458 kts 283°
2026-05-06 07:29 51.47055 -156.79987 34210 ft 458 kts 283°
2026-05-06 07:29 51.48827 -156.89802 34219 ft 458 kts 284°
2026-05-06 07:30 51.50593 -156.99631 34206 ft 458 kts 284°
2026-05-06 07:30 51.52351 -157.09469 34207 ft 458 kts 283°
2026-05-06 07:31 51.54099 -157.19307 34208 ft 458 kts 283°
2026-05-06 07:31 51.55842 -157.29170 34220 ft 459 kts 284°
2026-05-06 07:32 51.57576 -157.39038 34207 ft 459 kts 284°
2026-05-06 07:32 51.59303 -157.48921 34207 ft 459 kts 283°
2026-05-06 07:33 51.61023 -157.58819 34207 ft 459 kts 283°
2026-05-06 07:33 51.62735 -157.68723 34207 ft 460 kts 283°
2026-05-06 07:34 51.64438 -157.78632 34206 ft 460 kts 284°
2026-05-06 07:34 51.66137 -157.88577 34205 ft 460 kts 283°
2026-05-06 07:35 51.67826 -157.98519 34202 ft 460 kts 283°
2026-05-06 07:35 51.69508 -158.08475 34205 ft 461 kts 283°
2026-05-06 07:36 51.71184 -158.18452 34202 ft 461 kts 283°
2026-05-06 07:36 51.72849 -158.28422 34210 ft 461 kts 283°
2026-05-06 07:37 51.74511 -158.38431 34201 ft 462 kts 283°
2026-05-06 07:37 51.76163 -158.48442 34205 ft 462 kts 283°
2026-05-06 07:38 51.77798 -158.58408 34198 ft 462 kts 283°
2026-05-06 07:38 51.79445 -158.68502 34201 ft 462 kts 283°
2026-05-06 07:39 51.81076 -158.78565 34198 ft 463 kts 283°
2026-05-06 07:39 51.82691 -158.88581 34199 ft 464 kts 283°
2026-05-06 07:40 51.84307 -158.98672 34199 ft 464 kts 283°
2026-05-06 07:40 51.85916 -159.08778 34198 ft 464 kts 283°
2026-05-06 07:41 51.87520 -159.18910 34197 ft 465 kts 283°
2026-05-06 07:41 51.89117 -159.29064 34201 ft 466 kts 283°
2026-05-06 07:42 51.90707 -159.39232 34199 ft 466 kts 283°
2026-05-06 07:42 51.92020 -159.47685 34197 ft 466 kts 283°
2026-05-06 07:43 51.93858 -159.59584 34198 ft 466 kts 283°
2026-05-06 07:43 51.95160 -159.68065 34202 ft 466 kts 283°
2026-05-06 07:44 51.96726 -159.78330 34199 ft 466 kts 283°
2026-05-06 07:44 51.98261 -159.88451 34200 ft 466 kts 283°
2026-05-06 07:45 51.99800 -159.98656 34195 ft 465 kts 283°
2026-05-06 07:45 52.01305 -160.08886 34193 ft 466 kts 283°
2026-05-06 07:46 52.02772 -160.19133 34199 ft 467 kts 282°
2026-05-06 07:46 52.04236 -160.29423 34199 ft 468 kts 282°
2026-05-06 07:47 52.05696 -160.39725 34197 ft 468 kts 282°
2026-05-06 07:47 52.07152 -160.50045 34191 ft 469 kts 282°
2026-05-06 07:48 52.08601 -160.60392 34199 ft 470 kts 282°
2026-05-06 07:48 52.10047 -160.70781 34195 ft 471 kts 282°
2026-05-06 07:49 52.11485 -160.81192 34199 ft 472 kts 282°
2026-05-06 07:49 52.12917 -160.91625 34193 ft 473 kts 282°
2026-05-06 07:50 52.14340 -161.02072 34180 ft 473 kts 283°
2026-05-06 07:50 52.15758 -161.12554 34204 ft 474 kts 282°
2026-05-06 07:51 52.17168 -161.23062 34197 ft 475 kts 282°
2026-05-06 07:51 52.18563 -161.33540 34200 ft 472 kts 282°
2026-05-06 07:52 52.19946 -161.43979 34178 ft 471 kts 282°
2026-05-06 07:52 52.21318 -161.54419 34191 ft 472 kts 283°
2026-05-06 07:53 52.22684 -161.64898 34191 ft 473 kts 283°
2026-05-06 07:53 52.24044 -161.75416 34190 ft 475 kts 283°
2026-05-06 07:54 52.25401 -161.85979 34193 ft 476 kts 283°
2026-05-06 07:54 52.26749 -161.96552 34177 ft 477 kts 283°
2026-05-06 07:55 52.28092 -162.07158 34186 ft 477 kts 283°
2026-05-06 07:55 52.29418 -162.17716 34190 ft 478 kts 282°
2026-05-06 07:56 52.30752 -162.28437 34181 ft 478 kts 282°
2026-05-06 07:56 52.32069 -162.39094 34187 ft 478 kts 283°
2026-05-06 07:57 52.33367 -162.49678 34184 ft 478 kts 283°
2026-05-06 07:57 52.34663 -162.60327 34188 ft 477 kts 283°
2026-05-06 07:58 52.35948 -162.70975 34185 ft 477 kts 283°
2026-05-06 07:58 52.37224 -162.81632 34181 ft 477 kts 283°
2026-05-06 07:59 52.38489 -162.92286 34178 ft 477 kts 283°
2026-05-06 07:59 52.39743 -163.02933 34181 ft 476 kts 283°
2026-05-06 08:00 52.40987 -163.13592 34179 ft 476 kts 283°
2026-05-06 08:00 52.42223 -163.24252 34184 ft 476 kts 283°
2026-05-06 08:01 52.43449 -163.34926 34180 ft 477 kts 283°
2026-05-06 08:01 52.44663 -163.45595 34178 ft 476 kts 284°
2026-05-06 08:02 52.45868 -163.56256 34178 ft 475 kts 283°
2026-05-06 08:02 52.47063 -163.66916 34176 ft 475 kts 283°
2026-05-06 08:03 52.48245 -163.77564 34175 ft 474 kts 283°
2026-05-06 08:03 52.49417 -163.88207 34171 ft 474 kts 284°
2026-05-06 08:04 52.50575 -163.98831 34174 ft 472 kts 284°
2026-05-06 08:04 52.51712 -164.09337 34175 ft 470 kts 284°
2026-05-06 08:05 52.52843 -164.19883 34170 ft 468 kts 283°
2026-05-06 08:05 52.53963 -164.30413 34178 ft 468 kts 283°
2026-05-06 08:06 52.55071 -164.40931 34178 ft 468 kts 283°
2026-05-06 08:06 52.56172 -164.51468 34178 ft 468 kts 283°
2026-05-06 08:07 52.57265 -164.62025 34177 ft 469 kts 283°
2026-05-06 08:07 52.58349 -164.72601 34178 ft 470 kts 283°
2026-05-06 08:08 52.59426 -164.83200 34169 ft 470 kts 283°
2026-05-06 08:08 52.60489 -164.93779 34170 ft 468 kts 283°
2026-05-06 08:09 52.61539 -165.04305 34170 ft 465 kts 283°
2026-05-06 08:09 52.62575 -165.14796 34176 ft 463 kts 283°
2026-05-06 08:10 52.63598 -165.25244 34175 ft 462 kts 283°
2026-05-06 08:10 52.64610 -165.35691 34160 ft 461 kts 284°
2026-05-06 08:11 52.65608 -165.46090 34172 ft 460 kts 284°
2026-05-06 08:11 52.66597 -165.56481 34171 ft 459 kts 284°
2026-05-06 08:12 52.67575 -165.66861 34183 ft 458 kts 283°
2026-05-06 08:12 52.68544 -165.77245 34180 ft 458 kts 283°
2026-05-06 08:13 52.69502 -165.87624 34173 ft 457 kts 284°
2026-05-06 08:13 52.70449 -165.97979 34171 ft 456 kts 284°
2026-05-06 08:14 52.71383 -166.08306 34180 ft 455 kts 284°
2026-05-06 08:14 52.72307 -166.18608 34180 ft 454 kts 284°
2026-05-06 08:15 52.73220 -166.28901 34179 ft 453 kts 284°
2026-05-06 08:15 52.74121 -166.39173 34176 ft 451 kts 284°
2026-05-06 08:16 52.75010 -166.49403 34175 ft 449 kts 284°
2026-05-06 08:16 52.75886 -166.59587 34177 ft 447 kts 284°
2026-05-06 08:17 52.76752 -166.69748 34177 ft 446 kts 284°
2026-05-06 08:17 52.77607 -166.79891 34177 ft 446 kts 284°
2026-05-06 08:18 52.78447 -166.89966 34170 ft 445 kts 283°
2026-05-06 08:18 52.79281 -167.00083 34174 ft 444 kts 283°
2026-05-06 08:19 52.80106 -167.10189 34174 ft 444 kts 283°
2026-05-06 08:19 52.80923 -167.20298 34174 ft 444 kts 283°
2026-05-06 08:20 52.81731 -167.30414 34161 ft 444 kts 283°
2026-05-06 08:20 52.82522 -167.40468 34161 ft 438 kts 283°
2026-05-06 08:21 52.83297 -167.50403 34168 ft 434 kts 283°
2026-05-06 08:21 52.84060 -167.60270 34173 ft 432 kts 283°
2026-05-06 08:22 52.84817 -167.70158 34175 ft 434 kts 283°
2026-05-06 08:22 52.85569 -167.80087 34176 ft 437 kts 283°
2026-05-06 08:23 52.86316 -167.90077 34186 ft 438 kts 282°
2026-05-06 08:23 52.87055 -168.00104 34169 ft 439 kts 282°
2026-05-06 08:24 52.87785 -168.10138 34168 ft 439 kts 282°
2026-05-06 08:24 52.88508 -168.20175 34169 ft 439 kts 282°
2026-05-06 08:25 52.89222 -168.30201 34174 ft 438 kts 282°
2026-05-06 08:25 52.89925 -168.40215 34161 ft 437 kts 281°
2026-05-06 08:26 52.90620 -168.50211 34172 ft 437 kts 281°
2026-05-06 08:26 52.91306 -168.60203 34172 ft 436 kts 281°
2026-05-06 08:27 52.91983 -168.70190 34175 ft 436 kts 281°
2026-05-06 08:27 52.92539 -168.78488 34180 ft 436 kts 281°
2026-05-06 08:28 52.93312 -168.90167 34162 ft 436 kts 279°
2026-05-06 08:28 52.93854 -168.98476 34165 ft 436 kts 279°
2026-05-06 08:29 52.94497 -169.08468 34168 ft 436 kts 279°
2026-05-06 08:29 52.95133 -169.18467 34171 ft 436 kts 279°
2026-05-06 08:30 52.95761 -169.28473 34172 ft 436 kts 279°
2026-05-06 08:30 52.96380 -169.38484 34174 ft 436 kts 279°
2026-05-06 08:31 52.96991 -169.48500 34168 ft 436 kts 279°
2026-05-06 08:31 52.97595 -169.58528 34166 ft 437 kts 279°
2026-05-06 08:32 52.98189 -169.68542 34167 ft 437 kts 279°
2026-05-06 08:32 52.98776 -169.78591 34166 ft 437 kts 279°
2026-05-06 08:33 52.99356 -169.88643 34156 ft 438 kts 278°
2026-05-06 08:33 52.99928 -169.98698 34169 ft 438 kts 278°
2026-05-06 08:34 53.00613 -170.13860 34169 ft 440 kts 277°
2026-05-06 08:35 53.00998 -170.23989 34165 ft 440 kts 277°
2026-05-06 08:35 53.01387 -170.34128 34164 ft 440 kts 276°
2026-05-06 08:36 53.01774 -170.44211 34158 ft 441 kts 276°
2026-05-06 08:36 53.02158 -170.54372 34160 ft 441 kts 276°
2026-05-06 08:37 53.02535 -170.64541 34158 ft 441 kts 276°
2026-05-06 08:37 53.02903 -170.74707 34159 ft 441 kts 276°
2026-05-06 08:38 53.03263 -170.84886 34154 ft 441 kts 275°
2026-05-06 08:38 53.03614 -170.95059 34155 ft 441 kts 275°
2026-05-06 08:39 53.03954 -171.05233 34152 ft 441 kts 275°
2026-05-06 08:39 53.04287 -171.15393 34156 ft 440 kts 274°
2026-05-06 08:40 53.04610 -171.25542 34152 ft 440 kts 274°
2026-05-06 08:40 53.04926 -171.35703 34151 ft 440 kts 274°
2026-05-06 08:41 53.05233 -171.45882 34152 ft 441 kts 274°
2026-05-06 08:41 53.05531 -171.56073 34151 ft 442 kts 274°
2026-05-06 08:42 53.05822 -171.66300 34149 ft 443 kts 274°
2026-05-06 08:42 53.06105 -171.76553 34146 ft 444 kts 273°
2026-05-06 08:43 53.06379 -171.86803 34138 ft 444 kts 273°
2026-05-06 08:43 53.06644 -171.97080 34143 ft 445 kts 272°
2026-05-06 08:44 53.06901 -172.07363 34138 ft 445 kts 272°
2026-05-06 08:44 53.07149 -172.17650 34137 ft 446 kts 272°
2026-05-06 08:45 53.07389 -172.27955 34131 ft 446 kts 272°
2026-05-06 08:45 53.07619 -172.38249 34129 ft 446 kts 272°
2026-05-06 08:46 53.07840 -172.48555 34129 ft 446 kts 272°
2026-05-06 08:46 53.08054 -172.58857 34125 ft 446 kts 272°
2026-05-06 08:47 53.08258 -172.69167 34119 ft 446 kts 272°
2026-05-06 08:47 53.08453 -172.79468 34119 ft 446 kts 271°
2026-05-06 08:48 53.08638 -172.89711 34123 ft 446 kts 271°
2026-05-06 08:48 53.08815 -173.00046 34120 ft 448 kts 271°
2026-05-06 08:49 53.08985 -173.10425 34111 ft 449 kts 271°
2026-05-06 08:49 53.09145 -173.20811 34114 ft 450 kts 271°
2026-05-06 08:50 53.09297 -173.31218 34118 ft 450 kts 271°
2026-05-06 08:50 53.09441 -173.41697 34120 ft 451 kts 270°
2026-05-06 08:51 53.09575 -173.52136 34103 ft 451 kts 270°
2026-05-06 08:51 53.09699 -173.62563 34110 ft 451 kts 270°
2026-05-06 08:52 53.09814 -173.72940 34110 ft 451 kts 270°
2026-05-06 08:52 53.09921 -173.83371 34104 ft 451 kts 270°
2026-05-06 08:53 53.10020 -173.93810 34112 ft 452 kts 269°
2026-05-06 08:53 53.10108 -174.04264 34099 ft 452 kts 268°
2026-05-06 08:54 53.10186 -174.14733 34077 ft 453 kts 268°
2026-05-06 08:54 53.10256 -174.25207 34092 ft 453 kts 268°
2026-05-06 08:55 53.10317 -174.35685 34097 ft 453 kts 268°
2026-05-06 08:55 53.10369 -174.46169 34090 ft 453 kts 268°
2026-05-06 08:56 53.10412 -174.56656 34085 ft 453 kts 268°
2026-05-06 08:56 53.10446 -174.67148 34087 ft 453 kts 268°
2026-05-06 08:57 53.10470 -174.77633 34083 ft 453 kts 268°
2026-05-06 08:57 53.10485 -174.88104 34086 ft 453 kts 268°
2026-05-06 08:58 53.10491 -174.98605 34077 ft 455 kts 267°
2026-05-06 08:58 53.10487 -175.09151 34078 ft 456 kts 267°
2026-05-06 08:59 53.10474 -175.19730 34079 ft 458 kts 267°
2026-05-06 08:59 53.10452 -175.30324 34073 ft 459 kts 267°
2026-05-06 09:00 53.10421 -175.40876 34067 ft 459 kts 266°
2026-05-06 09:00 53.10379 -175.51548 34079 ft 464 kts 266°
2026-05-06 09:01 53.10326 -175.62325 34072 ft 468 kts 266°
2026-05-06 09:01 53.10265 -175.73192 34066 ft 471 kts 266°
2026-05-06 09:02 53.10194 -175.84099 34061 ft 472 kts 266°
2026-05-06 09:02 53.10113 -175.95000 34079 ft 471 kts 265°
2026-05-06 09:03 53.10021 -176.05925 34061 ft 472 kts 265°
2026-05-06 09:03 53.09918 -176.16850 34050 ft 473 kts 265°
2026-05-06 09:04 53.09806 -176.27789 34049 ft 473 kts 265°
2026-05-06 09:04 53.09684 -176.38736 34041 ft 473 kts 265°
2026-05-06 09:05 53.09551 -176.49699 34048 ft 474 kts 264°
2026-05-06 09:05 53.09408 -176.60676 34039 ft 475 kts 264°
2026-05-06 09:06 53.09255 -176.71687 34036 ft 476 kts 264°
2026-05-06 09:06 53.09092 -176.82708 34030 ft 477 kts 264°
2026-05-06 09:07 53.08918 -176.93736 34033 ft 477 kts 264°
2026-05-06 09:07 53.08733 -177.04783 34026 ft 478 kts 263°
2026-05-06 09:08 53.08540 -177.15768 34024 ft 478 kts 263°
2026-05-06 09:08 53.08333 -177.26893 34018 ft 478 kts 263°
2026-05-06 09:09 53.08120 -177.37857 34008 ft 477 kts 263°
2026-05-06 09:09 53.07895 -177.48880 34039 ft 477 kts 263°
2026-05-06 09:10 53.07659 -177.59927 34007 ft 478 kts 262°
2026-05-06 09:10 53.07413 -177.70970 34007 ft 478 kts 262°
2026-05-06 09:11 53.07157 -177.82009 33992 ft 478 kts 262°
2026-05-06 09:11 53.06891 -177.93053 33987 ft 478 kts 262°
2026-05-06 09:12 53.06613 -178.04111 33987 ft 481 kts 261°
2026-05-06 09:12 53.06323 -178.15235 33991 ft 482 kts 261°
2026-05-06 09:13 53.06023 -178.26382 33984 ft 484 kts 261°
2026-05-06 09:13 53.05712 -178.37562 33969 ft 484 kts 261°
2026-05-06 09:14 53.05390 -178.48751 34005 ft 485 kts 261°
2026-05-06 09:14 53.05113 -178.58086 33963 ft 487 kts 261°
2026-05-06 09:15 53.04770 -178.69316 33956 ft 487 kts 261°
2026-05-06 09:15 53.04416 -178.80577 33947 ft 488 kts 261°
2026-05-06 09:16 53.04051 -178.91829 33946 ft 488 kts 261°
2026-05-06 09:16 53.03676 -179.03084 33968 ft 488 kts 261°
2026-05-06 09:17 53.03288 -179.14364 33942 ft 489 kts 260°
2026-05-06 09:17 53.02891 -179.25630 33930 ft 489 kts 260°
2026-05-06 09:18 53.02483 -179.36898 33932 ft 489 kts 260°
2026-05-06 09:18 53.02064 -179.48172 33920 ft 488 kts 260°
2026-05-06 09:19 53.01635 -179.59423 33921 ft 488 kts 260°
2026-05-06 09:19 53.01196 -179.70669 33915 ft 488 kts 260°
2026-05-06 09:20 53.00746 -179.81916 33926 ft 488 kts 260°
2026-05-06 09:20 53.00288 -179.93135 33913 ft 487 kts 259°
2026-05-06 09:21 53.00204 179.95554 33968 ft 497 kts 270°
2026-05-06 09:21 53.00589 179.89834 34206 ft 499 kts 271°
2026-05-06 09:21 53.01002 179.84131 34541 ft 497 kts 271°
2026-05-06 09:21 53.01415 179.78447 34873 ft 495 kts 271°
2026-05-06 09:22 53.01818 179.72780 35249 ft 493 kts 271°
2026-05-06 09:22 53.02208 179.67145 35601 ft 491 kts 271°
2026-05-06 09:22 53.02586 179.61514 35828 ft 492 kts 271°
2026-05-06 09:23 53.03325 179.50157 35871 ft 495 kts 271°
2026-05-06 09:23 53.04050 179.38817 35872 ft 491 kts 271°
2026-05-06 09:24 53.04760 179.27567 35870 ft 488 kts 271°
2026-05-06 09:24 53.05456 179.16357 35863 ft 487 kts 271°
2026-05-06 09:25 53.06136 179.05231 35865 ft 487 kts 271°
2026-05-06 09:25 53.06811 178.94007 35870 ft 489 kts 271°
2026-05-06 09:26 53.07484 178.82635 35867 ft 492 kts 271°
2026-05-06 09:26 53.08142 178.71355 35844 ft 495 kts 271°
2026-05-06 09:27 53.08797 178.59949 35847 ft 496 kts 271°
2026-05-06 09:27 53.09442 178.48517 35829 ft 497 kts 271°
2026-05-06 09:28 53.10077 178.37058 35825 ft 497 kts 271°
2026-05-06 09:28 53.10701 178.25619 35816 ft 496 kts 270°
2026-05-06 09:29 53.11311 178.14213 35807 ft 494 kts 270°
2026-05-06 09:29 53.11908 178.02841 35805 ft 492 kts 270°
2026-05-06 09:30 53.12492 177.91496 35808 ft 492 kts 270°
2026-05-06 09:30 53.13065 177.80157 35799 ft 491 kts 270°
2026-05-06 09:31 53.13627 177.68823 35786 ft 491 kts 270°
2026-05-06 09:31 53.14177 177.57497 35786 ft 491 kts 270°
2026-05-06 09:32 53.14718 177.46149 35773 ft 491 kts 270°
2026-05-06 09:32 53.15248 177.34792 35759 ft 492 kts 269°
2026-05-06 09:33 53.15769 177.23410 35767 ft 492 kts 269°
2026-05-06 09:33 53.16279 177.12037 35746 ft 493 kts 270°
2026-05-06 09:34 53.16778 177.00654 35752 ft 493 kts 269°
2026-05-06 09:34 53.17266 176.89266 35748 ft 493 kts 270°
2026-05-06 09:35 53.17745 176.77865 35742 ft 493 kts 269°
2026-05-06 09:35 53.18209 176.66478 35725 ft 492 kts 269°
2026-05-06 09:36 53.18663 176.55101 35721 ft 492 kts 269°
2026-05-06 09:36 53.19108 176.43728 35709 ft 491 kts 270°
2026-05-06 09:37 53.19540 176.32351 35716 ft 491 kts 270°
2026-05-06 09:37 53.19961 176.20982 35703 ft 491 kts 269°
2026-05-06 09:38 53.20372 176.09613 35694 ft 491 kts 270°
2026-05-06 09:38 53.20774 175.98221 35692 ft 492 kts 268°
2026-05-06 09:39 53.21163 175.86904 35696 ft 492 kts 268°
2026-05-06 09:39 53.21539 175.75494 35681 ft 492 kts 269°
2026-05-06 09:40 53.21905 175.64092 35663 ft 492 kts 268°
2026-05-06 09:40 53.22440 175.46998 35655 ft 492 kts 268°
2026-05-06 09:41 53.22782 175.35603 35655 ft 491 kts 268°
2026-05-06 09:41 53.23109 175.24217 35641 ft 491 kts 268°
2026-05-06 09:42 53.23427 175.12836 35644 ft 491 kts 269°
2026-05-06 09:42 53.23736 175.01462 35638 ft 491 kts 268°
2026-05-06 09:43 53.24031 174.90088 35648 ft 491 kts 267°
2026-05-06 09:43 53.24317 174.78695 35633 ft 491 kts 269°
2026-05-06 09:44 53.24593 174.67311 35624 ft 491 kts 269°
2026-05-06 09:44 53.24857 174.55938 35622 ft 490 kts 268°
2026-05-06 09:45 53.25108 174.44577 35612 ft 490 kts 267°
2026-05-06 09:45 53.25352 174.33209 35628 ft 490 kts 269°
2026-05-06 09:46 53.25583 174.21837 35606 ft 490 kts 268°
2026-05-06 09:46 53.25802 174.10470 35591 ft 490 kts 269°
2026-05-06 09:47 53.26013 173.99093 35598 ft 490 kts 268°
2026-05-06 09:47 53.26212 173.87726 35601 ft 490 kts 268°
2026-05-06 09:48 53.26400 173.76354 35594 ft 490 kts 269°
2026-05-06 09:48 53.26577 173.64971 35590 ft 490 kts 268°
2026-05-06 09:49 53.26743 173.53578 35589 ft 490 kts 268°
2026-05-06 09:49 53.26899 173.42202 35587 ft 490 kts 268°
2026-05-06 09:50 53.27043 173.30825 35607 ft 490 kts 268°
2026-05-06 09:50 53.27177 173.19439 35592 ft 490 kts 268°
2026-05-06 09:51 53.27300 173.08065 35587 ft 490 kts 268°
2026-05-06 09:51 53.27412 172.96686 35585 ft 489 kts 268°
2026-05-06 09:52 53.27514 172.85328 35585 ft 489 kts 268°
2026-05-06 09:52 53.27604 172.73955 35592 ft 489 kts 268°
2026-05-06 09:53 53.27684 172.62583 35578 ft 489 kts 268°
2026-05-06 09:53 53.27752 172.51215 35584 ft 489 kts 268°
2026-05-06 09:54 53.27810 172.39845 35579 ft 490 kts 268°
2026-05-06 09:54 53.27857 172.28462 35605 ft 490 kts 268°
2026-05-06 09:55 53.27894 172.17085 35580 ft 490 kts 268°
2026-05-06 09:55 53.27919 172.05691 35575 ft 490 kts 268°
2026-05-06 09:56 53.27934 171.94387 35566 ft 490 kts 268°
2026-05-06 09:56 53.27938 171.83013 35565 ft 489 kts 267°
2026-05-06 09:57 53.27931 171.71649 35573 ft 489 kts 268°
2026-05-06 09:57 53.27913 171.60297 35563 ft 488 kts 267°
2026-05-06 09:58 53.27885 171.48955 35559 ft 488 kts 267°
2026-05-06 09:58 53.27846 171.37633 35557 ft 487 kts 267°
2026-05-06 09:59 53.27796 171.26319 35552 ft 487 kts 267°
2026-05-06 09:59 53.27746 171.16846 35554 ft 487 kts 267°
2026-05-06 10:00 53.27677 171.05617 35547 ft 486 kts 267°
2026-05-06 10:00 53.27598 170.94318 35542 ft 486 kts 267°
2026-05-06 10:01 53.27507 170.83039 35539 ft 486 kts 266°
2026-05-06 10:01 53.27406 170.71748 35548 ft 486 kts 266°
2026-05-06 10:02 53.27294 170.60464 35543 ft 486 kts 266°
2026-05-06 10:02 53.27172 170.49195 35527 ft 485 kts 266°
2026-05-06 10:03 53.27039 170.37936 35529 ft 484 kts 266°
2026-05-06 10:03 53.26896 170.26695 35519 ft 484 kts 266°
2026-05-06 10:04 53.26742 170.15459 35525 ft 484 kts 266°
2026-05-06 10:04 53.26579 170.04233 35515 ft 484 kts 266°
2026-05-06 10:05 53.26404 169.92999 35516 ft 484 kts 266°
2026-05-06 10:05 53.26221 169.81779 35511 ft 484 kts 266°
2026-05-06 10:06 53.25539 169.70652 35522 ft 480 kts 254°
2026-05-06 10:06 53.23269 169.60246 35509 ft 476 kts 240°
2026-05-06 10:07 53.20139 169.50585 35511 ft 466 kts 240°
2026-05-06 10:07 53.17047 169.41130 35512 ft 469 kts 240°
2026-05-06 10:08 53.13881 169.31449 35510 ft 482 kts 240°
2026-05-06 10:08 53.10696 169.21606 35508 ft 485 kts 240°
2026-05-06 10:09 53.07691 169.11790 35666 ft 458 kts 245°
2026-05-06 10:09 53.06336 169.06954 35281 ft 465 kts 241°
2026-05-06 10:09 53.04750 169.02260 35422 ft 468 kts 238°
2026-05-06 10:10 53.01399 168.92825 35481 ft 479 kts 239°
2026-05-06 10:10 52.98114 168.83122 35462 ft 485 kts 239°
2026-05-06 10:11 52.94976 168.73468 35487 ft 468 kts 240°
2026-05-06 10:11 52.91891 168.64126 35479 ft 459 kts 240°
2026-05-06 10:12 52.88850 168.54995 35521 ft 456 kts 239°
2026-05-06 10:12 52.85716 168.45685 35490 ft 470 kts 240°
2026-05-06 10:13 52.82747 168.36291 35817 ft 435 kts 243°
2026-05-06 10:13 52.81343 168.31803 35624 ft 443 kts 240°
2026-05-06 10:13 52.79796 168.27362 35613 ft 449 kts 239°
2026-05-06 10:14 52.76572 168.18309 35499 ft 466 kts 239°
2026-05-06 10:14 52.73289 168.08895 35475 ft 480 kts 239°
2026-05-06 10:15 52.70048 167.99408 35466 ft 468 kts 240°
2026-05-06 10:15 52.68500 167.94808 35502 ft 451 kts 240°
2026-05-06 10:15 52.66964 167.90282 35483 ft 456 kts 240°
2026-05-06 10:16 52.63788 167.81048 35482 ft 471 kts 240°
2026-05-06 10:16 52.60518 167.71573 35478 ft 478 kts 240°
2026-05-06 10:17 52.57232 167.62067 35468 ft 477 kts 240°
2026-05-06 10:17 52.53953 167.52613 35462 ft 475 kts 240°
2026-05-06 10:18 52.50681 167.43220 35469 ft 472 kts 240°
2026-05-06 10:18 52.47421 167.33897 35472 ft 470 kts 240°
2026-05-06 10:19 52.44143 167.24592 35465 ft 467 kts 240°
2026-05-06 10:19 52.40985 167.15556 35438 ft 447 kts 240°
2026-05-06 10:20 52.37823 167.06652 35476 ft 459 kts 240°
2026-05-06 10:20 52.34630 166.97613 35467 ft 464 kts 240°
2026-05-06 10:21 52.31357 166.88444 35525 ft 464 kts 240°
2026-05-06 10:21 52.28073 166.79257 35485 ft 471 kts 240°
2026-05-06 10:22 52.24760 166.70058 35495 ft 461 kts 241°
2026-05-06 10:22 52.21550 166.61111 35464 ft 460 kts 240°
2026-05-06 10:23 52.18259 166.52026 35486 ft 468 kts 241°
2026-05-06 10:23 52.14957 166.42898 35478 ft 467 kts 240°
2026-05-06 10:24 52.11653 166.33816 35476 ft 465 kts 240°
2026-05-06 10:24 52.08350 166.24777 35478 ft 464 kts 240°
2026-05-06 10:25 52.05052 166.15780 35476 ft 463 kts 240°
2026-05-06 10:25 52.01770 166.06816 35482 ft 460 kts 240°
2026-05-06 10:26 51.98446 165.97850 35483 ft 469 kts 240°
2026-05-06 10:26 51.95100 165.88795 35489 ft 462 kts 240°
2026-05-06 10:27 51.91778 165.79867 35490 ft 466 kts 239°
2026-05-06 10:27 51.88416 165.70864 35491 ft 468 kts 240°
2026-05-06 10:28 51.85078 165.61969 35494 ft 462 kts 240°
2026-05-06 10:28 51.81753 165.53107 35502 ft 462 kts 240°
2026-05-06 10:29 51.78406 165.44199 35498 ft 464 kts 240°
2026-05-06 10:29 51.75029 165.35287 35517 ft 467 kts 240°
2026-05-06 10:30 51.71630 165.26347 35519 ft 468 kts 240°
2026-05-06 10:30 51.68218 165.17392 35510 ft 468 kts 240°
2026-05-06 10:31 51.64809 165.08471 35508 ft 467 kts 240°
2026-05-06 10:31 51.61398 164.99581 35508 ft 466 kts 240°
2026-05-06 10:32 51.57996 164.90744 35520 ft 464 kts 240°
2026-05-06 10:32 51.54593 164.81934 35521 ft 463 kts 240°
2026-05-06 10:33 51.51194 164.73165 35515 ft 462 kts 240°
2026-05-06 10:33 51.47794 164.64424 35525 ft 461 kts 240°
2026-05-06 10:34 51.44395 164.55713 35532 ft 461 kts 240°
2026-05-06 10:34 51.40990 164.47015 35530 ft 461 kts 240°
2026-05-06 10:35 51.37599 164.38382 35531 ft 461 kts 240°
2026-05-06 10:35 51.34178 164.29705 35542 ft 461 kts 240°
2026-05-06 10:36 51.30749 164.21033 35550 ft 462 kts 240°
2026-05-06 10:36 51.27313 164.12368 35553 ft 462 kts 240°
2026-05-06 10:37 51.23866 164.03712 35553 ft 462 kts 240°
2026-05-06 10:37 51.20411 163.95079 35554 ft 462 kts 240°
2026-05-06 10:38 51.16950 163.86462 35553 ft 461 kts 240°
2026-05-06 10:38 51.13486 163.77861 35555 ft 460 kts 240°
2026-05-06 10:39 51.10027 163.69296 35557 ft 460 kts 240°
2026-05-06 10:39 51.06571 163.60764 35566 ft 459 kts 240°
2026-05-06 10:40 51.03113 163.52257 35571 ft 458 kts 240°
2026-05-06 10:40 50.99653 163.43773 35576 ft 457 kts 240°
2026-05-06 10:41 50.96188 163.35305 35585 ft 457 kts 240°
2026-05-06 10:41 50.92718 163.26851 35592 ft 457 kts 240°
2026-05-06 10:42 50.89248 163.18424 35575 ft 457 kts 240°
2026-05-06 10:42 50.85771 163.10011 35587 ft 456 kts 240°
2026-05-06 10:43 50.82290 163.01611 35588 ft 456 kts 240°
2026-05-06 10:44 50.77087 162.89112 35589 ft 455 kts 240°
2026-05-06 10:44 50.73606 162.80780 35593 ft 454 kts 240°
2026-05-06 10:45 50.70131 162.72490 35603 ft 452 kts 240°
2026-05-06 10:45 50.66659 162.64233 35603 ft 451 kts 240°
2026-05-06 10:46 50.63776 162.57395 35606 ft 450 kts 240°
2026-05-06 10:46 50.60305 162.49187 35608 ft 450 kts 240°
2026-05-06 10:47 50.56837 162.41014 35609 ft 449 kts 240°
2026-05-06 10:47 50.53372 162.32872 35618 ft 448 kts 240°
2026-05-06 10:48 50.49902 162.24743 35625 ft 448 kts 240°
2026-05-06 10:48 50.46431 162.16635 35623 ft 447 kts 240°
2026-05-06 10:49 50.42953 162.08541 35622 ft 446 kts 240°
2026-05-06 10:49 50.39483 162.00490 35622 ft 444 kts 240°